Location: Newark
(34.1333°N, 7.9667°W)
Time: 20:16:23
(UTC+00:00)

N. Korean satellite - Pass Details

Date: 04 October 2021
Orbit: 450 x 495 km, 97.3° (Epoch: 23 October)

Event Time Altitude Azimuth Distance (km) Brightness Sun altitude
Rises 05:36:49 0° 13° (NNE) 2,561 10.4 -11.5°
Reaches altitude 10° 05:38:53 10° 16° (NNE) 1,682 9.5 -11.1°
Maximum altitude 05:42:30 72° 100° (E) 521 6.9 -10.4°
Drops below altitude 10° 05:46:07 10° 186° (S) 1,683 9.2 -9.6°
Sets 05:48:12 0° 188° (S) 2,563 10.1 -9.2°
